HB9MZI Weather Reports


time (UTC)temp
F
wind
direction
speed
knots
gust
knots
rain 1hr
in
rain 24hr
in
rain mn
in
humidity
%
barometer
mb
20260506132003 48 107 0.0 0.0 0.00 1.22 1.45 100 992.0
20260506073413 54 135 0.0 0.0 0.02 0.30 0.73 100 984.5
20260506070359 54 128 3.5 3.5 0.02 0.30 0.73 100 984.6
20260506061335 54 139 0.9 0.0 0.07 0.30 0.72 100 985.2
20260506060330 54 30 0.0 0.0 0.07 0.30 0.71 100 985.2
20260506051306 54 30 0.0 0.0 0.11 0.30 0.67 100 985.4
20260506050804 54 30 0.0 0.0 0.11 0.30 0.66 100 985.5
20260506044754 54 30 0.0 0.0 0.19 0.30 0.62 100 985.5
20260506025159 54 30 0.0 0.0 0.06 0.30 0.34 100 986.5
20260506022145 54 30 0.0 0.0 0.06 0.30 0.19 100 986.9
20260506015633 54 30 0.0 0.0 0.06 0.30 0.12 100 986.8
20260506015131 54 30 0.0 0.0 0.00 0.30 0.10 100 986.9
20260506013625 54 30 0.0 0.0 0.00 0.30 0.07 100 987.0
20260506013121 54 30 0.0 0.0 0.00 0.30 0.06 100 986.9
20260506011615 54 30 0.0 0.0 0.00 0.30 0.04 100 987.2
20260506010610 54 30 0.0 0.0 0.00 0.30 0.04 100 987.3
20260506005605 54 30 0.0 0.0 0.00 0.30 0.04 100 987.4
20260506004600 54 30 0.0 0.0 0.04 0.30 0.04 100 987.4
20260506003555 54 30 0.0 0.0 0.04 0.30 0.04 100 987.5
20260506003053 54 30 0.0 0.0 0.04 0.30 0.04 100 987.5
20260506002550 54 30 0.0 0.0 0.04 0.30 0.04 100 987.6
20260506001546 54 30 0.0 0.0 0.04 0.30 0.04 100 987.8
20260505190820 54 30 0.0 0.0 0.00 0.00 0.27 100 988.9